Printer-friendly version

IAU Minor Planet Center

Minor Planet Center

MPEC 2006-S71 : 2006 SR131

The following Minor Planet Electronic Circular may be linked-to from your own Web pages, but must not otherwise be redistributed electronically.


Read MPEC 2006-S70 Read MPEC 2006-S72


M.P.E.C. 2006-S71                                Issued 2006 Sept. 27, 13:41 UT

     The Minor Planet Electronic Circulars contain information on unusual
         minor planets and routine data on comets.  They are published
   on behalf of Commission 20 of the International Astronomical Union by the
          Minor Planet Center, Smithsonian Astrophysical Observatory,
                          Cambridge, MA 02138, U.S.A.

                  Supported in part by the Brinson Foundation
                  Supported in part by the TABASGO Foundation
             Prepared using the Tamkin Foundation Computer Network

                              MPC@CFA.HARVARD.EDU
          URL http://cfa-www.harvard.edu/iau/mpc.html  ISSN 1523-6714

                                  2006 SR131

Observations:
     K06SD1R* C2006 09 26.36106 00 09 54.14 +03 07 32.3          18.2 V ES071G96
     K06SD1R  C2006 09 26.36395 00 09 58.53 +03 07 44.1          18.2 V ES071G96
     K06SD1R  C2006 09 26.36675 00 10 02.78 +03 07 55.4          18.3 V ES071G96
     K06SD1R  C2006 09 26.36962 00 10 07.14 +03 08 07.0          18.2 V ES071G96
     K06SD1R  C2006 09 26.38736 00 10 33.91 +03 09 18.1          18.3 V ES071G96
     K06SD1R  C2006 09 26.39117 00 10 39.65 +03 09 33.3          18.4 V ES071G96
     K06SD1R  C2006 09 26.39476 00 10 45.06 +03 09 47.2          18.4 V ES071G96
     K06SD1R  C2006 09 26.39846 00 10 50.79 +03 10 02.1          19.2 V ES071G96
     K06SD1R  C2006 09 26.92279 00 23 45.08 +03 35 42.8                 ES071J95
     K06SD1R  C2006 09 26.92509 00 23 47.42 +03 35 49.7                 ES071J95
     K06SD1R  C2006 09 26.92741 00 23 49.72 +03 35 56.9          18.6 R ES071J95
     K06SD1R  C2006 09 27.14956 00 27 53.11 +03 46 37.3          19.1 R ES071734
     K06SD1R  C2006 09 27.15294 00 27 55.92 +03 46 45.5          19.2 R ES071734
     K06SD1R  C2006 09 27.15462 00 27 57.25 +03 46 49.2          19.2 R ES071734
     K06SD1R  C2006 09 27.15630 00 27 58.68 +03 46 53.4          19.1 R ES071734
     K06SD1R  C2006 09 27.20245 00 28 43.60 +03 49 38.0          19.3 R ES071651
     K06SD1R  C2006 09 27.20321 00 28 44.21 +03 49 39.4          19.3 R ES071651
     K06SD1R  C2006 09 27.20856 00 28 48.32 +03 49 51.9          19.3 R ES071651
     K06SD1R  C2006 09 27.23913 00 29 11.36 +03 50 52.8          19.1 V ES071G96
     K06SD1R  C2006 09 27.24377 00 29 14.74 +03 51 03.0          19.0 V ES071G96
     K06SD1R  C2006 09 27.24843 00 29 18.13 +03 51 13.0          19.1 V ES071G96
     K06SD1R  C2006 09 27.25306 00 29 21.44 +03 51 22.9          19.1 V ES071G96
     K06SD1R  C2006 09 27.26959 00 29 31.01 +03 51 59.1          18.7 R ES071448
     K06SD1R  C2006 09 27.27847 00 29 37.26 +03 52 18.0          19.0 R ES071448
     K06SD1R  C2006 09 27.28734 00 29 43.36 +03 52 36.7          18.9 R ES071448
     K06SD1R 2C2006 09 27.32676 00 30 09.71 +03 53 50.7          18.6 R ES071H06
     K06SD1R 2C2006 09 27.33359 00 30 14.43 +03 54 03.3          19.0 R ES071H06

Observer details:
448 Desert Moon Observatory.  Observer B. L. Stevens.  0.3-m
    Schmidt-Cassegrain + CCD.
651 Grasslands Observatory, Tucson.  Observer J. E. McGaha.  0.62-m f/5.1
    Newtonian reflector + CCD.
734 Farpoint Observatory.  Observer D. Tibbets.  0.7-m reflector + CCD.
G96 Mt. Lemmon Survey.  Observers E. C. Beshore, R. A. Kowalski.  Measurers
    E. C. Beshore, E. J. Christensen, G. J. Garradd, A. R. Gibbs, A. D. Grauer,
    R. E. Hill, R. A. Kowalski, S. M. Larson, R. H. McNaught.  1.5-m reflector
    + CCD.
H06 RAS Observatory, Mayhill.  Observer R. Hutsebaut.  0.25-m reflector + CCD.
J95 Great Shefford.  Observer P. Birtwhistle.  0.40-m f/6.0 Schmidt-Cassegrain
    + CCD.

Orbital elements:
2006 SR131                                               Earth MOID = 0.0008 AU
Epoch 2006 Sept. 22.0 TT = JDT 2454000.5                MPC
M  27.94133              (2000.0)            P               Q
n   0.64215432     Peri.  118.25402     +0.55727205     +0.83032945
a   1.3305865      Node   185.61360     -0.76510898     +0.51306335
e   0.3305316      Incl.    0.54535     -0.32257729     +0.21752931
P   1.53           H   28.0           G   0.15           U   7
Residuals in seconds of arc
060926 G96  0.1+  0.1+    060926 J95  0.3+  0.2-    060927 G96  0.7+  0.1-
060926 G96  0.1+  0.1+    060926 J95  0.4+  0.6+    060927 G96  0.4+  0.0
060926 G96  0.1+  0.0     060927 734  0.4+  0.1+    060927 G96  0.4+  0.1-
060926 G96  0.2+  0.0     060927 734  0.5+  0.2+    060927 G96  0.2-  0.2-
060926 G96  0.3-  0.1+    060927 734  0.3-  0.0     060927 448  0.3+  0.3-
060926 G96  0.2-  0.3+    060927 734  0.4+  0.2+    060927 448  0.6+  0.2+
060926 G96  0.1-  0.1+    060927 651  1.2-  0.0     060927 448  0.4-  0.6+
060926 G96 (2.4+  0.5+)   060927 651  0.9-  0.3-    060927 H06  0.6-  0.6+
060926 J95  0.6-  0.7-    060927 651  1.2-  0.0     060927 H06  0.6+  0.1+

Ephemeris:
2006 SR131               a,e,i = 1.33, 0.33, 1                   q = 0.8908
Date    TT    R. A. (2000) Decl.     Delta      r     Elong.  Phase     V
2006 09 22    14 13.52   -07 09.4    0.0116   0.994    35.3   144.4    25.8
2006 09 23    14 57.93   -08 06.5    0.00695  0.999    45.3   134.4    23.4
2006 09 24    17 45.98   -08 49.9    0.00334  1.003    85.8    94.0    19.0
2006 09 25    22 36.80   -00 26.2    0.00481  1.007   157.6    22.3    17.5
2006 09 26    23 57.57   +02 45.5    0.00918  1.012   176.5     3.5    18.2
2006 09 27    00 25.03   +03 47.0    0.0139   1.016   176.3     3.7    19.1
2006 09 28    00 38.43   +04 15.9    0.0188   1.021   174.1     5.7    19.9
2006 09 29    00 46.30   +04 32.4    0.0237   1.025   173.2     6.6    20.4
2006 09 30    00 51.46   +04 43.1    0.0287   1.030   172.9     6.9    20.9
2006 10 01    00 55.09   +04 50.5    0.0336   1.035   173.0     6.8    21.2
2006 10 02    00 57.77   +04 55.9    0.0386   1.039   173.3     6.5    21.5
2006 10 03    00 59.83   +05 00.1    0.0437   1.044   173.7     6.0    21.8
2006 10 04    01 01.45   +05 03.4    0.0487   1.049   174.3     5.5    22.0
2006 10 05    01 02.76   +05 06.1    0.0538   1.054   174.9     4.8    22.2
2006 10 06    01 03.83   +05 08.3    0.0589   1.059   175.6     4.2    22.3
2006 10 07    01 04.72   +05 10.1    0.0640   1.063   176.3     3.5    22.5
2006 10 08    01 05.46   +05 11.7    0.0692   1.068   176.9     2.9    22.6
2006 10 09    01 06.09   +05 13.0    0.0744   1.073   177.6     2.3    22.8
2006 10 10    01 06.63   +05 14.2    0.0796   1.078   178.1     1.8    22.9
2006 10 11    01 07.10   +05 15.3    0.0849   1.083   178.3     1.6    23.0
2006 10 12    01 07.51   +05 16.3    0.0902   1.088   178.0     1.8    23.2

Timothy B. Spahr             (C) Copyright 2006 MPC           M.P.E.C. 2006-S71

Read MPEC 2006-S70 Read MPEC 2006-S72


Our Web policy. Index to the CBAT/MPC/ICQ pages.


Valid HTML 4.01!